User: anonymous   Login
Location: Camp Creek
(33.9000°N, 111.8167°W)
Time: 12:21:08
(UTC-07:00)
Language:

Cosmos 1656 - Orbit

View from above orbital plane
View from above orbital plane
View from above satellite
View from above satellite

Ground track
Ground track

The orbit data is extracted from the following two-line orbital elements,

1 15755U 85042A   17178.89845275 +.00000036 +00000-0 +38804-4 0  9990
2 15755 071.1116 340.6674 0034295 031.8077 328.5111 14.20412000661942
Epoch (UTC): 27 June 2017 21:33:46
Eccentricity: 0.0034295
inclination: 71.1116°
perigee height: 799 km
apogee height: 848 km
right ascension of ascending node: 340.6674°
argument of perigee: 31.8077°
revolutions per day: 14.20412000
mean anomaly at epoch: 328.5111°
orbit number at epoch: 66194

The dashed part of the orbit path shows where the satellite is in the earth's shadow,  

DLR